TimeEEST,TemperatureF,Dew PointF,Humidity,Sea Level PressureIn,VisibilityMPH,Wind Direction,Wind SpeedMPH,Gust SpeedMPH,PrecipitationIn,Events,Conditions,WindDirDegrees,DateUTC
12:50 AM,50.0,37.4,62,30.27,6.2,East,4.6,-,N/A,,Partly Cloudy,80,2012-10-02 21:50:00
1:50 AM,50.0,32.0,50,30.27,6.2,ENE,2.3,-,N/A,,Partly Cloudy,60,2012-10-02 22:50:00
3:00 AM,49,34,45,,6,East,2.3,,,,Scattered Clouds,100,2012-10-03 00:00:00
3:50 AM,50.0,32.0,50,30.27,6.2,ENE,2.3,-,N/A,,Partly Cloudy,60,2012-10-03 00:50:00
4:50 AM,46.4,35.6,66,30.27,6.2,Variable,2.3,-,N/A,,Partly Cloudy,0,2012-10-03 01:50:00
5:50 AM,48.2,33.8,58,30.27,6.2,East,4.6,-,N/A,,Partly Cloudy,80,2012-10-03 02:50:00
6:50 AM,50.0,35.6,58,30.27,6.2,East,4.6,-,N/A,,Partly Cloudy,90,2012-10-03 03:50:00
7:50 AM,62.6,33.8,34,30.27,6.2,Variable,2.3,-,N/A,,Partly Cloudy,0,2012-10-03 04:50:00
8:50 AM,68.0,33.8,28,30.27,6.2,WNW,4.6,-,N/A,,Partly Cloudy,290,2012-10-03 05:50:00
9:00 AM,68,33,17,,6,WNW,4.6,,,,Scattered Clouds,290,2012-10-03 06:00:00
9:50 AM,68.0,41.0,37,30.27,6.2,West,6.9,-,N/A,,Scattered Clouds,270,2012-10-03 06:50:00
10:50 AM,68.0,44.6,43,30.27,6.2,WNW,5.8,-,N/A,,Scattered Clouds,290,2012-10-03 07:50:00
11:50 AM,69.8,41.0,35,30.24,6.2,West,4.6,-,N/A,,Scattered Clouds,280,2012-10-03 08:50:00
12:50 PM,68.0,50.0,52,30.21,6.2,WSW,8.1,-,N/A,,Mostly Cloudy,240,2012-10-03 09:50:00
1:50 PM,68.0,48.2,49,30.21,6.2,SW,4.6,-,N/A,,Mostly Cloudy,230,2012-10-03 10:50:00
2:50 PM,68.0,51.8,56,30.24,6.2,SW,16.1,-,N/A,,Mostly Cloudy,230,2012-10-03 11:50:00
3:00 PM,67,52,47,,6,SW,15.0,,,,Mostly Cloudy,230,2012-10-03 12:00:00
3:50 PM,64.4,42.8,45,30.24,6.2,SSE,12.7,-,N/A,Rain,Light Rain Showers,160,2012-10-03 12:50:00
4:50 PM,66.2,39.2,37,30.21,6.2,SSE,20.7,-,N/A,,Mostly Cloudy,160,2012-10-03 13:50:00
5:50 PM,64.4,42.8,45,30.18,6.2,SSE,20.7,-,N/A,,Mostly Cloudy,150,2012-10-03 14:50:00
6:50 PM,64.4,41.0,42,30.18,6.2,SE,19.6,-,N/A,,Mostly Cloudy,140,2012-10-03 15:50:00
7:50 PM,66.2,39.2,37,30.21,6.2,SE,16.1,-,N/A,,Mostly Cloudy,130,2012-10-03 16:50:00
8:50 PM,64.4,41.0,42,30.24,6.2,SSW,6.9,-,N/A,Rain,Light Rain Showers,210,2012-10-03 17:50:00
9:00 PM,65,39,27,,6,SSW,6.9,,,Rain,Light Rain Showers,210,2012-10-03 18:00:00
9:50 PM,62.6,44.6,52,30.24,6.2,Variable,3.5,-,N/A,,Mostly Cloudy,0,2012-10-03 18:50:00
10:50 PM,60.8,44.6,55,30.21,6.2,Variable,2.3,-,N/A,,Mostly Cloudy,0,2012-10-03 19:50:00
11:50 PM,57.2,48.2,72,30.18,6.2,NE,5.8,-,N/A,,Mostly Cloudy,50,2012-10-03 20:50:00